STARLINK-32113, 60282

Orbit data source: Space-Track

STARLINK-32113, 60282 is a payload satellite owned by SpaceX/Seattle (US) in LEO that was launched on Sun, 28 Jul 2024 UTC via an FALCON 9 launch vehicle from the Air Force Eastern Test Range (AFETR). Payload-class satellites include a variety of spacecraft equipped with specific instruments for various scientific and technological missions. These include communications satellites like Starlink; space stations such as the ISS; scientific satellites like the Hubble; Earth observation satellites from companies like Planet Labs, Umbra, and HawkEye 360; GPS; miniature CubeSats for education and research; and military/defense satellites.

Loading next visibility...
Identifier
60282, 2024-132E
Orbit
LEO
Country
Flag of USUS
Related business
Manufacturer
SpaceX/Seattle
Mission
Operational Commercial Communications
Bus & Motor
STARLINK V2M, Unknown motor
Mass
730 kg wet, ~700 kg dry
Launch date (UTC)
2024-07-28 (1 year ago)
Launch vehicle
FALCON 9
Launch site
Air Force Eastern Test Range (AFETR)
Object type
Payload
Rocket body
Debris
Shape & HBR
Box + 2 Pan, 17.7 m
Radar Cross Section
33.884 m², Large (>1 m²)

Expand to show TLE details & history
Last TLE update: 16 hours ago

TLE from 16 hours ago
0 STARLINK-32113
1 60282U 24132E   25303.26602882  .00000107  00000-0  15734-4 0  9999
2 60282  53.1606 298.1148 0001504  83.5822 276.5350 15.30196832 71590
Epoch: 2025-10-30T06:23Z
TLE epoch observation values (Epoch: 2025-10-30T06:23:04.890Z)
Latitude
Longitude
163.51714°
Altitude
476.007 km
Speed
7.629 km/s
True Right ascension
19h 52m 27s
True Declination
0° 00' 00"
Sunlit
Object was in daylight at epoch
Visualization orbit readout
Latitude
Unknown
Longitude
Unknown
Altitude
Unknown
Speed
Unknown
Apparent Right ascension
Unknown
Apparent Declination
Unknown
Sunlit
N/A
Visualization observer readout
Local Sidereal Time
17:44:59
Azimuth
Unknown
Elevation
Unknown
Doppler factor
Unknown
Orbital elements
Apogee altitude
476.512 km
Perigee altitude
474.45 km
Semi-major axis
6,853.618 km
Eccentricity
0.00015
Inclination
53.1606°
RAAN
298.1148°
Arg. of periapsis
83.5822°
True anomaly
276.51788°
Mean anomaly
276.535°
Eccentric anomaly
276.52644°
Mean motion
3.82528 °/min
Orbital period
94.11 mins
BSTAR
0.000015734
Loading maneuver chart data...
Computing Atmospheric mass density...
Loading historical data...
Loading historical data...
Loading historical data...
Loading historical data...
Loading historical data...
Loading historical data...
Loading historical data...

Documentation

Showing up to 5 results
|